Location: Unspecified
(0.0000°N, 0.0000°E)
Time: 23:48:44
(UTC+00:00)

Vanguard 2 - Pass Details

Date: 05 October 2020
Orbit: 554 x 2937 km, 32.9° (Epoch: 28 October)

Event Time Altitude Azimuth Distance (km) Brightness Sun altitude
Rises 21:45:34 0° 228° (SW) 6,392 12.6 -59.0°
Reaches altitude 10° 21:49:37 10° 225° (SW) 5,553 12.1 -60.0°
Enters shadow 21:58:32 38° 213° (SSW) 3,901 11.0 -62.1°
Maximum altitude 22:07:16 67° 145° (SE) 3,059 - -64.3°
Drops below altitude 10° 22:22:51 10° 65° (ENE) 5,001 - -68.1°
Sets 22:26:15 0° 63° (ENE) 5,756 - -68.9°
